contact:dominique.lefevre@mio.osupytheas.fr, maurice.libes@osupytheas.fr
Project:EMSO Ligure-ouest http://www.emso-fr.org/EMSO-France
Sensor Aquadopp, line 13 Serial AQD14315 
DOI : "https://doi.org/10.17882/74513; https://doi.org/10.17882/83244" 
Title:EMSO Ligure Ouest : Data ligne ALBATROSS capteur AQUADOPP - deploiement 2021
Id,Date,Profondeur,Latitude,Longitude,X_East,Y_North,Z_Up,Amplitude_X,Amplitude_Y,Amplitude_Z,Batterie,SoundSpeed,Heading,Pitch,Roll,Pressure,Temperature,Speed,Direction
, , m, degrees North, degrees East, m.s-1, m.s-1,m.s-1, 1, 1, 1, Volt, m.s-1, degree, degree, degree, dbar, degree_C, m.s-1, degree
09,2022-03-03T21:30:00,2000.0,42.79,6.0312,0.011,-0.023,0.006,70.0,66.0,69.0,12.1,1504.6,272.8,-0.7,0.9,1990.516,13.27,0.025,154.4
09,2022-03-03T22:00:00,2000.0,42.79,6.0312,0.019,-0.026,0.0,72.0,66.0,69.0,12.1,1504.6,275.1,-0.7,0.9,1990.497,13.27,0.032,143.8
09,2022-03-03T22:30:00,2000.0,42.79,6.0312,0.014,-0.025,0.018,71.0,66.0,69.0,12.1,1504.6,276.3,-0.8,0.9,1990.451,13.27,0.028,150.7
09,2022-03-03T23:00:00,2000.0,42.79,6.0312,0.044,0.003,-0.014,71.0,63.0,70.0,12.1,1504.6,278.9,-0.7,1.0,1990.468,13.27,0.044,86.1
09,2022-03-04T00:00:00,2000.0,42.79,6.0312,0.028,-0.033,-0.006,69.0,65.0,71.0,12.1,1504.7,278.4,-0.8,0.9,1990.423,13.28,0.043,139.7
09,2022-03-04T00:30:00,2000.0,42.79,6.0312,0.022,-0.019,0.041,72.0,66.0,69.0,12.1,1504.7,280.0,-0.7,0.9,1990.38,13.28,0.029,130.8
09,2022-03-04T01:00:00,2000.0,42.79,6.0312,0.016,-0.041,-0.014,73.0,64.0,72.0,12.1,1504.6,279.1,-0.8,0.9,1990.356,13.27,0.044,158.7
09,2022-03-04T01:30:00,2000.0,42.79,6.0312,0.028,-0.043,0.005,71.0,66.0,68.0,12.1,1504.6,272.8,-0.7,0.9,1990.39,13.27,0.051,146.9
09,2022-03-04T02:00:00,2000.0,42.79,6.0312,0.029,-0.044,-0.012,71.0,66.0,70.0,12.1,1504.6,274.5,-0.8,0.9,1990.377,13.27,0.052,146.6
09,2022-03-04T02:30:00,2000.0,42.79,6.0312,0.012,-0.04,-0.012,70.0,65.0,70.0,12.0,1504.6,287.6,-0.8,0.9,1990.378,13.27,0.041,163.3
09,2022-03-04T03:00:00,2000.0,42.79,6.0312,0.014,-0.034,0.02,68.0,67.0,71.0,12.0,1504.6,284.0,-0.6,0.9,1990.361,13.27,0.036,157.6
09,2022-03-04T03:30:00,2000.0,42.79,6.0312,0.003,-0.03,-0.012,73.0,65.0,69.0,12.1,1504.6,266.1,-0.8,0.9,1990.347,13.27,0.03,174.3
09,2022-03-04T04:00:00,2000.0,42.79,6.0312,0.021,-0.033,0.011,72.0,70.0,69.0,12.1,1504.6,257.4,-0.8,0.9,1990.388,13.27,0.039,147.5
09,2022-03-04T04:30:00,2000.0,42.79,6.0312,0.011,-0.022,-0.003,69.0,66.0,70.0,12.1,1504.6,254.0,-0.8,1.0,1990.413,13.27,0.024,153.4
09,2022-03-04T05:00:00,2000.0,42.79,6.0312,0.004,-0.037,-0.011,70.0,63.0,69.0,12.0,1504.6,261.8,-0.7,0.9,1990.499,13.27,0.037,173.8
09,2022-03-04T05:30:00,2000.0,42.79,6.0312,0.01,-0.027,-0.012,68.0,61.0,63.0,12.0,1504.6,254.8,-0.8,0.9,1990.465,13.27,0.028,159.7
09,2022-03-04T06:00:00,2000.0,42.79,6.0312,0.011,-0.018,0.007,73.0,65.0,67.0,12.1,1504.6,268.5,-0.7,0.9,1990.514,13.27,0.021,148.6
09,2022-03-04T06:30:00,2000.0,42.79,6.0312,0.02,-0.018,-0.032,68.0,65.0,66.0,12.1,1504.6,259.1,-0.8,0.9,1990.586,13.27,0.026,132.0
09,2022-03-04T07:00:00,2000.0,42.79,6.0312,0.01,-0.013,-0.009,70.0,62.0,68.0,12.1,1504.6,276.6,-0.7,1.0,1990.636,13.27,0.016,142.4
09,2022-03-04T07:30:00,2000.0,42.79,6.0312,0.01,-0.013,-0.016,70.0,65.0,69.0,12.1,1504.6,264.4,-0.8,0.9,1990.605,13.27,0.016,142.4
09,2022-03-04T08:00:00,2000.0,42.79,6.0312,0.018,-0.002,-0.012,71.0,63.0,75.0,12.1,1504.6,278.5,-0.8,0.9,1990.605,13.27,0.018,96.3
09,2022-03-04T08:30:00,2000.0,42.79,6.0312,-0.002,-0.005,0.011,69.0,65.0,66.0,12.1,1504.6,264.3,-0.8,0.9,1990.685,13.27,0.005,201.8
09,2022-03-04T09:00:00,2000.0,42.79,6.0312,0.007,0.007,0.014,71.0,71.0,68.0,12.1,1504.6,232.4,-0.6,1.1,1990.657,13.27,0.009,45.0
09,2022-03-04T09:30:00,2000.0,42.79,6.0312,0.028,0.0,-0.008,68.0,66.0,70.0,12.1,1504.6,243.9,-0.6,1.0,1990.653,13.27,0.028,90.0
09,2022-03-04T10:00:00,2000.0,42.79,6.0312,0.019,-0.01,-0.018,65.0,67.0,71.0,12.1,1504.6,247.5,-0.8,1.1,1990.644,13.27,0.021,117.8
09,2022-03-04T10:30:00,2000.0,42.79,6.0312,0.025,-0.008,-0.008,70.0,65.0,65.0,12.0,1504.6,235.6,-0.7,1.0,1990.592,13.27,0.026,107.7
09,2022-03-04T11:00:00,2000.0,42.79,6.0312,0.05,-0.007,0.003,68.0,64.0,70.0,12.1,1504.6,231.6,-0.7,1.1,1990.62,13.27,0.05,98.0
09,2022-03-04T11:30:00,2000.0,42.79,6.0312,0.03,-0.018,-0.025,69.0,66.0,68.0,12.1,1504.6,272.6,-0.6,0.9,1990.564,13.27,0.034,121.0
09,2022-03-04T12:00:00,2000.0,42.79,6.0312,0.026,0.0,0.022,69.0,64.0,71.0,12.1,1504.6,263.1,-0.6,1.0,1990.519,13.27,0.026,90.0
09,2022-03-04T13:00:00,2000.0,42.79,6.0312,0.024,-0.002,-0.009,68.0,66.0,68.0,12.1,1504.6,277.4,-0.6,0.9,1990.488,13.27,0.024,94.8
09,2022-03-04T13:30:00,2000.0,42.79,6.0312,0.036,-0.003,-0.013,69.0,68.0,69.0,12.1,1504.6,275.0,-0.7,0.9,1990.437,13.27,0.036,94.8
09,2022-03-04T14:00:00,2000.0,42.79,6.0312,0.039,-0.018,-0.023,67.0,64.0,69.0,12.0,1504.6,267.5,-0.8,0.9,1990.429,13.27,0.042,114.8
09,2022-03-04T14:30:00,2000.0,42.79,6.0312,0.027,-0.021,-0.011,67.0,66.0,71.0,12.1,1504.6,235.8,-0.8,1.0,1990.402,13.27,0.034,127.9
09,2022-03-04T15:00:00,2000.0,42.79,6.0312,0.018,-0.016,0.015,69.0,69.0,70.0,12.1,1504.6,233.6,-0.8,1.0,1990.373,13.27,0.024,131.6
09,2022-03-04T15:30:00,2000.0,42.79,6.0312,0.019,-0.022,0.007,70.0,68.0,67.0,12.1,1504.6,247.1,-0.8,1.0,1990.391,13.27,0.029,139.2
09,2022-03-04T16:00:00,2000.0,42.79,6.0312,0.04,-0.024,-0.02,69.0,67.0,66.0,12.0,1504.6,261.1,-0.8,0.9,1990.438,13.27,0.046,121.0
09,2022-03-04T16:30:00,2000.0,42.79,6.0312,0.031,-0.005,0.005,66.0,65.0,69.0,12.1,1504.6,254.6,-0.8,1.0,1990.432,13.27,0.031,99.2
09,2022-03-04T17:00:00,2000.0,42.79,6.0312,0.034,-0.024,0.0,71.0,68.0,67.0,12.0,1504.6,258.6,-0.6,1.1,1990.425,13.27,0.041,125.2
09,2022-03-04T17:30:00,2000.0,42.79,6.0312,0.033,-0.037,0.002,70.0,66.0,67.0,12.0,1504.6,243.6,-0.7,1.0,1990.429,13.27,0.049,138.3
09,2022-03-04T18:00:00,2000.0,42.79,6.0312,0.025,-0.006,0.003,69.0,64.0,71.0,12.1,1504.6,252.8,-0.8,1.0,1990.459,13.27,0.025,103.5
09,2022-03-04T18:30:00,2000.0,42.79,6.0312,0.034,-0.018,-0.012,71.0,69.0,72.0,12.0,1504.6,248.7,-0.6,1.0,1990.492,13.27,0.038,117.9
09,2022-03-04T19:00:00,2000.0,42.79,6.0312,0.024,-0.005,-0.007,70.0,66.0,67.0,12.1,1504.6,253.7,-0.9,1.0,1990.504,13.27,0.024,101.8
09,2022-03-04T19:30:00,2000.0,42.79,6.0312,0.028,-0.017,0.006,67.0,66.0,66.0,12.1,1504.6,262.5,-1.0,0.9,1990.567,13.27,0.032,121.3
09,2022-03-04T20:00:00,2000.0,42.79,6.0312,0.03,-0.027,-0.04,69.0,68.0,70.0,12.1,1504.6,263.2,-0.9,1.0,1990.548,13.27,0.04,132.0
09,2022-03-04T20:30:00,2000.0,42.79,6.0312,0.016,-0.018,0.007,68.0,64.0,67.0,12.1,1504.6,263.2,-0.8,1.0,1990.608,13.27,0.024,138.4
09,2022-03-04T21:00:00,2000.0,42.79,6.0312,0.029,-0.021,-0.027,70.0,65.0,69.0,12.1,1504.6,286.0,-0.9,0.9,1990.549,13.27,0.035,125.9
